Weather History for Sanford, NC

Change the Weather History Date:

Wednesday, November 7, 2012

  Actual Average (KRDU) Record (KRDU)
Temperature  
Mean Temperature 42 °F 55 °F  
Max Temperature 53 °F 67 °F 80 °F (2008)
Min Temperature 32 °F 43 °F 22 °F (1967)
Degree Days  
Heating Degree Days 22 11  
Month to date heating degree days 69  
Since 1 July heating degree days 258  
Cooling Degree Days 0 0  
Month to date cooling degree days 1  
Year to date cooling degree days 1721  
Moisture  
Dew Point 32 °F    
Average Humidity 64    
Maximum Humidity 100    
Minimum Humidity 41    
Precipitation  
Precipitation 0.00 in 0.11 in 2.40 in (2006)
Month to date precipitation 0.74  
Year to date precipitation 37.89  
Snow  
Snow 0.00 in 0.00 in T in (1927)
Month to date snowfall 0.0  
Since 1 July snowfall 0.0  
Since 1 September snowfall 0.0  
Snow Depth -    
Sea Level Pressure  
Sea Level Pressure 29.89 in    
Wind  
Wind Speed 4 mph (North)    
Max Wind Speed 10 mph    
Max Gust Speed -    
Visibility 10 miles    
Events      
T = Trace of Precipitation, MM = Missing Value Source: NWS Daily Summary

Daily Weather History Graph

Daily Weather History Graph

Search for Another Location

Airport:

Trip Planner

Search our weather history database for the weather conditions in past years. The results will help you decide how hot, cold, wet, or windy it might be!

Date:

Astronomy

Nov. 07, 2012 Rise Set
Actual Time 6:44 AM EST 5:15 PM EST
Civil Twilight 6:17 AM EST 5:41 PM EST
Nautical Twilight 5:47 AM EST 6:12 PM EST
Astronomical Twilight 5:17 AM EST 6:42 PM EST
Moon No Moon Rise 1:10 PM EST (11/7)
Length of Visible Light 11h 24m
Length of Day
10h 30m
Last Quarter, 43% of the Moon is Illuminated
Nov 7
Last Quarter
Nov 13
New
Nov 20
First Quarter
Nov 28
Full
Dec 6
Last Quarter

Hourly Weather History & Observations

Time (EST) Temp. Windchill Dew Point Humidity Pressure Visibility Wind Dir Wind Speed Gust Speed Precip Events Conditions
12:15 AM 41.0 °F 38.0 °F 30.2 °F 65% 29.93 in 10.0 mi NNW 4.6 mph - N/A   Overcast
12:35 AM 41.0 °F 38.0 °F 30.2 °F 65% 29.93 in 10.0 mi NNW 4.6 mph - N/A   Overcast
12:55 AM 41.0 °F 37.1 °F 30.2 °F 65% 29.92 in 10.0 mi North 5.8 mph - N/A   Overcast
1:15 AM 41.0 °F 38.0 °F 30.2 °F 65% 29.92 in 10.0 mi NW 4.6 mph - N/A   Overcast
1:35 AM 41.0 °F 39.0 °F 32.0 °F 70% 29.92 in 10.0 mi NW 3.5 mph - N/A   Overcast
1:55 AM 41.0 °F 39.0 °F 32.0 °F 70% 29.91 in 10.0 mi NW 3.5 mph - N/A   Overcast
2:15 AM 41.0 °F 38.0 °F 32.0 °F 70% 29.91 in 10.0 mi WNW 4.6 mph - N/A   Overcast
2:35 AM 41.0 °F 38.0 °F 32.0 °F 70% 29.91 in 10.0 mi NNW 4.6 mph - N/A   Overcast
3:15 AM 39.2 °F 35.9 °F 32.0 °F 75% 29.90 in 10.0 mi NNW 4.6 mph - N/A   Overcast
3:35 AM 39.2 °F 35.9 °F 32.0 °F 75% 29.89 in 10.0 mi NNW 4.6 mph - N/A   Overcast
3:55 AM 37.4 °F 34.9 °F 32.0 °F 81% 29.88 in 10.0 mi North 3.5 mph - N/A   Overcast
4:15 AM 37.4 °F 34.9 °F 30.2 °F 75% 29.88 in 10.0 mi NNW 3.5 mph - N/A   Mostly Cloudy
4:35 AM 35.6 °F - 30.2 °F 81% 29.88 in 10.0 mi Calm Calm - N/A   Mostly Cloudy
4:55 AM 35.6 °F - 30.2 °F 81% 29.89 in 10.0 mi Calm Calm - N/A   Mostly Cloudy
5:15 AM 33.8 °F - 30.2 °F 87% 29.89 in 10.0 mi Calm Calm - N/A   Scattered Clouds
5:35 AM 32.0 °F - 30.2 °F 93% 29.89 in 10.0 mi Calm Calm - N/A   Clear
5:55 AM 32.0 °F - 30.2 °F 93% 29.89 in 10.0 mi Calm Calm - N/A   Clear
6:35 AM 32.0 °F - 30.2 °F 93% 29.89 in 10.0 mi Calm Calm - N/A   Overcast
6:55 AM 32.0 °F - 32.0 °F 100% 29.89 in 10.0 mi Calm Calm - N/A   Overcast
7:15 AM 33.8 °F - 32.0 °F 93% 29.90 in 10.0 mi Calm Calm - N/A   Overcast
7:35 AM 37.4 °F 33.8 °F 32.0 °F 81% 29.90 in 10.0 mi NNW 4.6 mph - N/A   Overcast
7:55 AM 37.4 °F 34.9 °F 32.0 °F 81% 29.90 in 10.0 mi North 3.5 mph - N/A   Overcast
8:15 AM 39.2 °F 37.0 °F 32.0 °F 75% 29.91 in 10.0 mi NNW 3.5 mph - N/A   Overcast
8:35 AM 41.0 °F 39.0 °F 32.0 °F 70% 29.91 in 10.0 mi North 3.5 mph - N/A   Overcast
8:55 AM 41.0 °F 38.0 °F 32.0 °F 70% 29.91 in 10.0 mi North 4.6 mph - N/A   Overcast
9:15 AM 41.0 °F 38.0 °F 32.0 °F 70% 29.91 in 10.0 mi North 4.6 mph - N/A   Overcast
9:55 AM 44.6 °F 40.2 °F 33.8 °F 66% 29.91 in 10.0 mi North 8.1 mph - N/A   Overcast
10:15 AM 44.6 °F 39.7 °F 32.0 °F 61% 29.92 in 10.0 mi North 9.2 mph - N/A   Overcast
10:35 AM 44.6 °F 40.7 °F 32.0 °F 61% 29.92 in 10.0 mi NNW 6.9 mph - N/A   Scattered Clouds
10:55 AM 46.4 °F 43.5 °F 32.0 °F 57% 29.91 in 10.0 mi North 5.8 mph - N/A   Clear
11:15 AM 48.2 °F - 32.0 °F 54% 29.91 in 10.0 mi NNE 9.2 mph - N/A   Clear
11:35 AM 50.0 °F - 32.0 °F 50% 29.90 in 10.0 mi NNE 10.4 mph - N/A   Clear
11:55 AM 50.0 °F - 32.0 °F 50% 29.88 in 10.0 mi NNE 8.1 mph - N/A   Clear
12:35 PM 51.8 °F - 32.0 °F 47% 29.86 in 10.0 mi North 10.4 mph - N/A   Clear
12:55 PM 51.8 °F - 32.0 °F 47% 29.86 in 10.0 mi NNW 3.5 mph - N/A   Clear
1:15 PM 51.8 °F - 32.0 °F 47% 29.85 in 10.0 mi North 4.6 mph - N/A   Clear
1:35 PM 51.8 °F - 30.2 °F 44% 29.84 in 10.0 mi NW 8.1 mph - N/A   Clear
1:55 PM 51.8 °F - 30.2 °F 44% 29.84 in 10.0 mi North 5.8 mph - N/A   Clear
2:15 PM 53.6 °F - 32.0 °F 44% 29.84 in 10.0 mi North 5.8 mph - N/A   Clear
2:35 PM 53.6 °F - 32.0 °F 44% 29.83 in 10.0 mi Calm Calm - N/A   Clear
2:55 PM 53.6 °F - 30.2 °F 41% 29.83 in 10.0 mi WNW 3.5 mph - N/A   Clear
3:15 PM 53.6 °F - 30.2 °F 41% 29.83 in 10.0 mi NW 4.6 mph - N/A   Clear
3:35 PM 53.6 °F - 30.2 °F 41% 29.83 in 10.0 mi NW 4.6 mph - N/A   Scattered Clouds
3:55 PM 53.6 °F - 30.2 °F 41% 29.84 in 10.0 mi NW 6.9 mph - N/A   Overcast
4:15 PM 53.6 °F - 30.2 °F 41% 29.85 in 10.0 mi North 9.2 mph - N/A   Overcast
4:35 PM 51.8 °F - 30.2 °F 44% 29.86 in 10.0 mi North 5.8 mph - N/A   Scattered Clouds
4:55 PM 50.0 °F - 32.0 °F 50% 29.86 in 10.0 mi North 3.5 mph - N/A   Clear
5:15 PM 50.0 °F - 32.0 °F 50% 29.86 in 10.0 mi Calm Calm - N/A   Mostly Cloudy
5:35 PM 46.4 °F - 33.8 °F 62% 29.87 in 10.0 mi Calm Calm - N/A   Overcast
5:55 PM 48.2 °F - 32.0 °F 54% 29.88 in 10.0 mi Calm Calm - N/A   Overcast
6:15 PM 46.4 °F - 33.8 °F 62% 29.89 in 10.0 mi Calm Calm - N/A   Overcast
6:35 PM 46.4 °F 45.2 °F 33.8 °F 62% 29.90 in 10.0 mi North 3.5 mph - N/A   Overcast
6:55 PM 48.2 °F - 32.0 °F 54% 29.90 in 10.0 mi Calm Calm - N/A   Overcast
7:15 PM 46.4 °F 44.3 °F 32.0 °F 57% 29.90 in 10.0 mi NNE 4.6 mph - N/A   Overcast
7:35 PM 46.4 °F 45.2 °F 32.0 °F 57% 29.90 in 10.0 mi NE 3.5 mph - N/A   Overcast
7:55 PM 46.4 °F 44.3 °F 32.0 °F 57% 29.91 in 10.0 mi NE 4.6 mph - N/A   Overcast
8:15 PM 44.6 °F 41.4 °F 32.0 °F 61% 29.91 in 10.0 mi NNE 5.8 mph - N/A   Overcast
8:35 PM 44.6 °F 40.2 °F 32.0 °F 61% 29.92 in 10.0 mi NNE 8.1 mph - N/A   Overcast
8:55 PM 44.6 °F 41.4 °F 32.0 °F 61% 29.93 in 10.0 mi NNE 5.8 mph - N/A   Overcast
9:15 PM 44.6 °F - 32.0 °F 61% 29.93 in 10.0 mi Calm Calm - N/A   Scattered Clouds
9:35 PM 42.8 °F - 33.8 °F 70% 29.93 in 10.0 mi Calm Calm - N/A   Clear
9:55 PM 42.8 °F - 33.8 °F 70% 29.94 in 10.0 mi Calm Calm - N/A   Scattered Clouds
10:15 PM 42.8 °F - 33.8 °F 70% 29.94 in 10.0 mi Calm Calm - N/A   Mostly Cloudy
10:35 PM 42.8 °F 41.1 °F 33.8 °F 70% 29.95 in 10.0 mi North 3.5 mph - N/A   Scattered Clouds
10:55 PM 42.8 °F - 33.8 °F 70% 29.95 in 10.0 mi Calm Calm - N/A   Clear
11:15 PM 39.2 °F - 33.8 °F 81% 29.95 in 10.0 mi Calm Calm - N/A   Clear
11:35 PM 37.4 °F - 33.8 °F 87% 29.95 in 10.0 mi Calm Calm - N/A   Clear